This demonstration page uses our WeatherBlox Daily Observations layout. Learn more.

Left ArrowRight Arrow

34.02893, -84.19858

Hourly Observations for February 12, 2017

Temp ( °F °C ) Dew Point ( °F °C ) Humidity (%) Winds ( mph kmh ) Pressure ( in mb ) Visibility ( mi km ) Precip ( " mm )
12:20 am 00:20 Cloudy 66 19 57 14 73 73 SW 9 15 30.06 1018 10 16 0.00 0.00
12:53 am 00:53 Cloudy 65 18.3 57 13.9 76 76 SW 10 17 30.07 1018 10 16 0.00 0.00
1:53 am 01:53 Cloudy 65 18.3 58 14.4 78 78 SW 14 22 30.06 1018 10 16 0.00 0.00
2:53 am 02:53 Cloudy 64 17.8 58 14.4 81 81 SW 13 20 30.06 1018 10 16 0.00 0.00
3:53 am 03:53 Cloudy 64 17.8 59 15 84 84 SSW 13 20 30.06 1018 10 16 0.00 0.00
4:18 am 04:18 Cloudy 64 18 59 15 83 83 SW 12 19 30.06 1018 10 16 0.00 0.00
4:53 am 04:53 Cloudy 64 17.8 59 15 84 84 SW 9 15 30.06 1018 9 14 0.00 0.00
5:53 am 05:53 Cloudy 64 17.8 60 15.6 87 87 SSW 13 20 30.06 1018 9 14 0.00 0.00
6:35 am 06:35 Cloudy 64 17.8 60 15.6 87 87 SW 12 19 30.06 1018 10 16 0.00 0.00
6:53 am 06:53 Cloudy 64 17.8 60 15.6 87 87 SW 13 20 30.05 1018 10 16 0.00 0.00
7:53 am 07:53 Cloudy 64 17.8 60 15.6 87 87 SW 9 15 30.06 1018 9 14 0.00 0.00
8:28 am 08:28 Cloudy 64 18 61 16 88 88 SW 10 17 30.06 1018 9 14 0.00 0.00
8:53 am 08:53 Cloudy 65 18.3 60 15.6 84 84 SW 10 17 30.07 1018 9 14 0.00 0.00
9:53 am 09:53 Cloudy 66 18.9 60 15.6 81 81 WSW 10 17 30.07 1018 9 14 0.00 0.00
10:53 am 10:53 Cloudy 66 18.9 61 16.1 84 84 SW 14 22 30.08 1019 7 11 0.00 0.00
11:53 am 11:53 Cloudy 67 19.4 61 16.1 81 81 SW 10 17 30.07 1018 7 11 0.00 0.00
12:37 pm 12:37 Cloudy 67 19.4 61 16.1 81 81 SW 10 17 30.06 1018 7 11 0.00 0.00
12:53 pm 12:53 Cloudy 68 20 61 16.1 78 78 SW 12 19 30.05 1018 7 11 0.00 0.00
1:53 pm 13:53 Cloudy 69 20.6 61 16.1 76 76 WSW 8 13 30.03 1017 9 14 0.00 0.00
2:53 pm 14:53 Cloudy 71 21.7 61 16.1 71 71 W 9 15 30.01 1016 9 14 0.00 0.00
3:48 pm 15:48 Cloudy 72 22 61 16 69 69 W 12 19 30.00 1016 10 16 0.00 0.00
3:53 pm 15:53 Cloudy 71 21.7 60 15.6 68 68 W 9 15 30.01 1016 10 16 0.00 0.00
4:53 pm 16:53 Cloudy 71 21.7 60 15.6 68 68 W 13 20 30.00 1016 10 16 0.00 0.00
5:53 pm 17:53 Mostly Cloudy 71 21.7 60 15.6 68 68 W 8 13 30.00 1016 10 16 0.00 0.00
6:28 pm 18:28 Cloudy 70 21 61 16 73 73 WSW 9 15 30.00 1016 10 16 0.00 0.00
6:35 pm 18:35 Cloudy 70 21.1 60 15.6 71 71 W 8 13 30.00 1016 10 16 0.00 0.00
6:53 pm 18:53 Cloudy 70 21.1 60 15.6 71 71 WSW 10 17 30.01 1016 10 16 0.00 0.00
7:00 pm 19:00 Mostly Cloudy 70 21 61 16 73 73 WSW 9 15 30.00 1016 10 16 0.00 0.00
7:53 pm 19:53 Cloudy 69 20.6 60 15.6 73 73 WSW 9 15 30.02 1017 10 16 0.00 0.00
8:22 pm 20:22 Cloudy with Light Rain 68 20 61 16 78 78 NW 12 19 30.03 1017 10 16 0.00 0.00
8:42 pm 20:42 Cloudy with Light Rain 66 19 61 16 83 83 NNW 13 20 30.03 1017 8 13 0.00 0.00
8:53 pm 20:53 Cloudy with Light Rain 66 18.9 57 13.9 73 73 NW 18 30 30.05 1018 10 16 0.00 0.03
9:53 pm 21:53 Cloudy 63 17.2 52 11.1 68 68 NW 12 19 30.06 1018 10 16 0.00 0.03
10:53 pm 22:53 Clear 60 15.6 43 6.1 53 53 NW 14 22 30.09 1019 10 16 0.00 0.00
11:53 pm 23:53 Clear 57 13.9 36 2.2 45 45 NW 15 24 30.10 1019 10 16 0.00 0.00

Powered by AerisWeather